Back to catalog

STARLINK-32475

AliveCommunicationsVLEO
NORAD 61728·PAYLOAD·🇺🇸 United States

Launched Oct 30, 2024 from Cape Canaveral Space Force Station

Loading…

Next Passes (next 24 hours)

TLE

FreshSource: CelesTrak SupGP

Epoch: Sep 15, 2026, 02:20 UTC

1 61728C 24196X   26258.09770833  .00035673  00000+0  10541-2 0  2580
2 61728  53.1590 298.9286 0001208  93.8360 237.5363 15.34368828    11

Track STARLINK-32475 in real time with AllMySat

Download on the App Store